Clarksville, TN

10:55 AM CST on December 12, 2017 (GMT -0600)
Outlaw

Weather History for KCKV - October, 2011

Change the Weather History Date:

Wednesday, October 19, 2011

  Actual Average Record
Temperature  
Mean Temperature 46 °F 58 °F  
Max Temperature 47 °F 70 °F 89 °F (2005)
Min Temperature 44 °F 45 °F 26 °F (1948)
Degree Days  
Heating Degree Days 19    
Month to date heating degree days 87  
Since 1 July heating degree days 122  
Cooling Degree Days 0    
Month to date cooling degree days 10  
Year to date cooling degree days  
Moisture  
Dew Point 43 °F    
Average Humidity 88    
Maximum Humidity 93    
Minimum Humidity 83    
Precipitation  
Precipitation 0.11 in 0.14 in 1.68 in (1993)
Month to date precipitation 0.87 2.47  
Year to date precipitation 39.13  
Sea Level Pressure  
Sea Level Pressure 29.66 in    
Wind  
Wind Speed 13 mph (WNW)    
Max Wind Speed 22 mph    
Max Gust Speed 33 mph    
Visibility 9 miles    
Events Rain    
T = Trace of Precipitation, MM = Missing Value Source: NWS Daily Summary

Daily Weather History Graph

Daily Weather History Graph

Search for Another Location

Airport or City:

Trip Planner

Search our weather history database for the weather conditions in past years. The results will help you decide how hot, cold, wet, or windy it might be!

Date:

Astronomy

Oct. 19, 2011 Rise Set
Actual Time 7:00 AM CDT 6:08 PM CDT
Civil Twilight 6:34 AM CDT 6:34 PM CDT
Nautical Twilight 6:04 AM CDT 7:04 PM CDT
Astronomical Twilight 5:34 AM CDT 7:34 PM CDT
Moon 11:57 PM CDT (10/19) 1:26 PM CDT (10/19)
Length of Visible Light 12h 00m
Length of Day
11h 07m
Waning Gibbous, 54% of the Moon is Illuminated
Oct 19
Waning Gibbous
Oct 19
Last Quarter
Oct 26
New
Nov 2
First Quarter
Nov 10
Full

Hourly Weather History & Observations

Time (CDT) Temp. Windchill Dew Point Humidity Pressure Visibility Wind Dir Wind Speed Gust Speed Precip Events Conditions
12:52 AM 45.0 °F 37.6 °F 43.0 °F 93% 29.67 in 10.0 mi NNW 17.3 mph 20.7 mph 0.00 in   Overcast
1:52 AM 45.0 °F 38.5 °F 42.1 °F 90% 29.67 in 10.0 mi NW 13.8 mph - N/A   Overcast
2:02 AM 44.6 °F 39.2 °F 42.8 °F 93% 29.67 in 10.0 mi NW 10.4 mph - N/A   Overcast
2:52 AM 45.0 °F 39.3 °F 42.1 °F 90% 29.65 in 10.0 mi NW 11.5 mph - N/A   Overcast
3:17 AM 44.6 °F 40.7 °F 42.8 °F 93% 29.65 in 10.0 mi NW 6.9 mph - N/A   Overcast
3:29 AM 44.6 °F 39.2 °F 42.8 °F 93% 29.64 in 10.0 mi NW 10.4 mph - N/A   Overcast
3:36 AM 44.6 °F 39.7 °F 42.8 °F 93% 29.64 in 10.0 mi NW 9.2 mph - N/A   Overcast
3:52 AM 45.0 °F 40.1 °F 42.1 °F 90% 29.64 in 10.0 mi NW 9.2 mph - N/A   Overcast
4:52 AM 45.0 °F 39.7 °F 42.1 °F 90% 29.62 in 10.0 mi WNW 10.4 mph - 0.00 in   Overcast
5:52 AM 46.0 °F 39.9 °F 42.1 °F 86% 29.62 in 10.0 mi WNW 13.8 mph - N/A   Overcast
7:52 AM 46.0 °F 40.2 °F 42.1 °F 86% 29.62 in 8.0 mi WNW 12.7 mph - N/A   Overcast
9:05 AM 44.6 °F 40.2 °F 42.8 °F 93% 29.62 in 6.0 mi WNW 8.1 mph - 0.00 in Rain Light Rain
9:33 AM 46.4 °F 40.1 °F 42.8 °F 87% 29.61 in 10.0 mi NW 15.0 mph 21.9 mph 0.00 in   Overcast
9:52 AM 46.0 °F 40.2 °F 43.0 °F 89% 29.62 in 6.0 mi WNW 12.7 mph - 0.00 in   Overcast
10:33 AM 46.4 °F 41.5 °F 44.6 °F 93% 29.62 in 4.0 mi West 10.4 mph - 0.01 in Rain Light Rain
10:52 AM 46.0 °F 41.9 °F 44.1 °F 93% 29.61 in 5.0 mi West 8.1 mph - 0.02 in Rain Light Rain
11:02 AM 46.4 °F 41.1 °F 44.6 °F 93% 29.61 in 3.0 mi West 11.5 mph - 0.01 in Rain Light Rain
11:52 AM 46.9 °F - 44.1 °F 90% 29.61 in 9.0 mi WNW 15.0 mph 23.0 mph 0.02 in Rain Light Rain
12:52 PM 46.9 °F - 43.0 °F 86% 29.60 in 10.0 mi WNW 15.0 mph 23.0 mph 0.00 in   Overcast
1:52 PM 46.9 °F - 44.1 °F 90% 29.60 in 10.0 mi WNW 13.8 mph 23.0 mph 0.01 in Rain Light Rain
3:52 PM 46.9 °F - 44.1 °F 90% 29.62 in 10.0 mi West 17.3 mph - 0.01 in Rain Light Rain
4:52 PM 46.9 °F - 44.1 °F 90% 29.65 in 6.0 mi WNW 11.5 mph - 0.01 in Rain Light Rain
5:20 PM 46.4 °F 39.5 °F 42.8 °F 87% 29.66 in 10.0 mi WNW 17.3 mph 25.3 mph 0.01 in Rain Light Rain
5:45 PM 46.4 °F 41.1 °F 42.8 °F 87% 29.67 in 10.0 mi WNW 11.5 mph 19.6 mph 0.01 in Rain Light Rain
5:52 PM 46.0 °F 39.3 °F 43.0 °F 89% 29.67 in 10.0 mi WNW 16.1 mph 25.3 mph 0.01 in Rain Light Rain
6:52 PM 46.0 °F 38.8 °F 42.1 °F 86% 29.70 in 10.0 mi NW 18.4 mph 28.8 mph 0.01 in Rain Light Rain
7:52 PM 46.0 °F 41.4 °F 42.1 °F 86% 29.71 in 10.0 mi WNW 9.2 mph - 0.01 in   Overcast
8:01 PM 46.4 °F 41.5 °F 42.8 °F 87% 29.71 in 10.0 mi West 10.4 mph - N/A   Overcast
8:52 PM 46.0 °F 39.9 °F 42.1 °F 86% 29.72 in 10.0 mi WNW 13.8 mph - 0.00 in Rain Light Rain
9:18 PM 44.6 °F 38.1 °F 41.0 °F 87% 29.72 in 10.0 mi West 13.8 mph 21.9 mph 0.00 in   Mostly Cloudy
9:52 PM 45.0 °F 38.2 °F 39.9 °F 82% 29.72 in 10.0 mi WNW 15.0 mph - 0.00 in   Overcast
10:52 PM 45.0 °F 39.3 °F 39.9 °F 82% 29.72 in 10.0 mi West 11.5 mph - N/A   Overcast
11:12 PM 44.6 °F 38.8 °F 41.0 °F 87% 29.71 in 9.0 mi West 11.5 mph - 0.00 in Rain Light Rain
11:52 PM 44.1 °F 37.4 °F 41.0 °F 89% 29.71 in 10.0 mi West 13.8 mph 21.9 mph 0.00 in Rain Light Rain